User: anonymous   Login
Location: Mississauga
(43.5802°N, 79.6166°W)
Time: 06:51:31
(UTC-04:00)
Language:

Cosmos 1437 Rocket - Orbit

View from above orbital plane
View from above orbital plane
View from above satellite
View from above satellite

Ground track
Ground track

The orbit data is extracted from the following two-line orbital elements,

1 13771U 83003B   15242.49016322  .00000499  00000-0  30062-4 0  9991
2 13771 081.1537 039.7109 0030255 029.0938 331.1964 15.08575151774734
Epoch (UTC): 30 August 2015 11:45:50
Eccentricity: 0.0030255
inclination: 81.1537°
perigee height: 519 km
apogee height: 561 km
right ascension of ascending node: 39.7109°
argument of perigee: 29.0938°
revolutions per day: 15.08575151
mean anomaly at epoch: 331.1964°
orbit number at epoch: 77473

The dashed part of the orbit path shows where the satellite is in the earth's shadow,  

DLR